This demonstration page uses our WeatherBlox Daily Observations layout. Learn more.

Left ArrowRight Arrow

32.84923, -109.75925

Hourly Observations for February 25, 2019

Temp ( °F °C ) Dew Point ( °F °C ) Humidity (%) Winds ( mph kmh ) Pressure ( in mb ) Visibility ( mi km ) Precip ( " mm )
12:51 am 00:51 Clear 36 2.2 32 0 86 86 Calm 30.02 1017 10 16 0.00 0.00
1:51 am 01:51 Clear 35 1.7 32 0 89 89 Calm 30.01 1016 10 16 0.00 0.00
2:51 am 02:51 Clear 33 0.6 31 -0.6 92 92 E 3 6 30.01 1016 10 16 0.00 0.00
3:51 am 03:51 Clear 33 0.6 31 -0.6 92 92 E 6 9 29.99 1016 10 16 0.00 0.00
4:51 am 04:51 Clear 33 0.6 30 -1.1 89 89 E 3 6 30.01 1016 10 16 0.00 0.00
5:51 am 05:51 Clear 32 0 30 -1.1 92 92 SE 6 9 30.03 1017 10 16 0.00 0.00
6:51 am 06:51 Sunny 30 -1.1 28 -2.2 92 92 ESE 5 7 30.05 1018 10 16 0.00 0.00
7:51 am 07:51 Sunny 36 2.2 31 -0.6 82 82 Calm 30.07 1018 10 16 0.00 0.00
8:51 am 08:51 Sunny 44 6.7 32 0 63 63 SSE 3 6 30.08 1019 10 16 0.00 0.00
9:51 am 09:51 Sunny 50 10 31 -0.6 48 48 Calm 30.06 1018 10 16 0.00 0.00
10:51 am 10:51 Sunny 55 12.8 32 0 42 42 NW 5 7 30.06 1018 10 16 0.00 0.00
11:51 am 11:51 Sunny 58 14.4 31 -0.6 36 36 Calm 30.04 1017 10 16 0.00 0.00
12:51 pm 12:51 Sunny 62 16.7 30 -1.1 30 30 VRB 6 9 30.01 1016 10 16 0.00 0.00
1:51 pm 13:51 Sunny 61 16.1 31 -0.6 32 32 W 3 6 29.99 1016 10 16 0.00 0.00
2:51 pm 14:51 Sunny 67 19.4 29 -1.7 24 24 NNW 12 19 29.97 1015 10 16 0.00 0.00
3:51 pm 15:51 Sunny 65 18.3 29 -1.7 26 26 NW 9 15 29.98 1015 10 16 0.00 0.00
4:51 pm 16:51 Sunny 64 17.8 28 -2.2 26 26 WNW 9 15 29.97 1015 10 16 0.00 0.00
5:51 pm 17:51 Sunny 61 16.1 31 -0.6 32 32 W 8 13 29.99 1016 10 16 0.00 0.00
6:51 pm 18:51 Clear 57 13.9 33 0.6 41 41 WNW 5 7 30.01 1016 10 16 0.00 0.00
7:51 pm 19:51 Clear 53 11.7 35 1.7 51 51 NNW 8 13 30.02 1017 10 16 0.00 0.00
8:51 pm 20:51 Clear 50 10 34 1.1 54 54 NNW 8 13 30.01 1016 10 16 0.00 0.00
9:51 pm 21:51 Clear 48 8.9 34 1.1 58 58 NW 5 7 30.03 1017 10 16 0.00 0.00
10:51 pm 22:51 Clear 46 7.8 34 1.1 63 63 Calm 30.03 1017 10 16 0.00 0.00
11:51 pm 23:51 Clear 43 6.1 34 1.1 71 71 Calm 30.04 1017 10 16 0.00 0.00

Powered by Vaisala Xweather